Time,TemperatureF,DewpointF,PressureIn,WindDirection,WindDirectionDegrees,WindSpeedMPH,WindSpeedGustMPH,Humidity,HourlyPrecipIn,Conditions,Clouds,dailyrainin,SoftwareType,DateUTC
2013-09-06 00:00:00,53.8,48.8,30.11,SE,144,0.0,0.0,83,0.00,CLR,,0.00,WeatherDisplay:10.37,2013-09-06 05:00:00,
2013-09-06 00:05:00,53.5,48.8,30.12,SE,144,0.0,0.0,84,0.00,CLR,,0.00,WeatherDisplay:10.37,2013-09-06 05:05:00,
2013-09-06 00:10:00,53.2,48.5,30.12,SE,144,0.0,0.0,84,0.00,CLR,,0.00,WeatherDisplay:10.37,2013-09-06 05:10:00,
2013-09-06 00:15:00,52.8,48.4,30.12,SE,144,0.0,0.0,85,0.00,CLR,,0.00,WeatherDisplay:10.37,2013-09-06 05:15:00,
2013-09-06 00:20:00,52.6,48.2,30.11,SE,144,0.0,0.0,85,0.00,CLR,,0.00,WeatherDisplay:10.37,2013-09-06 05:20:00,
2013-09-06 00:25:00,52.5,48.4,30.11,SE,144,0.0,0.0,86,0.00,CLR,,0.00,WeatherDisplay:10.37,2013-09-06 05:25:00,
2013-09-06 00:30:00,52.3,48.2,30.11,SE,144,0.0,0.0,86,0.00,CLR,,0.00,WeatherDisplay:10.37,2013-09-06 05:30:00,
2013-09-06 00:35:00,52.2,48.1,30.11,SE,144,0.0,0.0,86,0.00,CLR,,0.00,WeatherDisplay:10.37,2013-09-06 05:35:00,
2013-09-06 00:40:00,52.0,48.3,30.11,SE,144,0.0,0.0,87,0.00,CLR,,0.00,WeatherDisplay:10.37,2013-09-06 05:40:00,
2013-09-06 00:45:00,51.9,48.2,30.11,SE,144,0.0,0.0,87,0.00,CLR,,0.00,WeatherDisplay:10.37,2013-09-06 05:45:00,
2013-09-06 00:50:00,51.7,48.3,30.10,SE,144,0.0,0.0,88,0.00,CLR,,0.00,WeatherDisplay:10.37,2013-09-06 05:50:00,
2013-09-06 00:55:00,51.6,48.2,30.10,SE,144,0.0,0.0,88,0.00,CLR,,0.00,WeatherDisplay:10.37,2013-09-06 05:55:00,
2013-09-06 01:00:00,51.6,48.5,30.10,SE,144,0.0,0.0,89,0.00,CLR,,0.00,WeatherDisplay:10.37,2013-09-06 06:00:00,
2013-09-06 01:05:00,51.5,48.4,30.10,SE,144,0.0,0.0,89,0.00,CLR,,0.00,WeatherDisplay:10.37,2013-09-06 06:05:00,
2013-09-06 01:15:00,51.6,48.5,30.10,SE,144,0.0,0.0,89,0.00,CLR,,0.00,WeatherDisplay:10.37,2013-09-06 06:15:00,
2013-09-06 01:20:00,51.4,48.0,30.10,SE,144,0.0,0.0,88,0.00,CLR,,0.00,WeatherDisplay:10.37,2013-09-06 06:20:00,
2013-09-06 01:25:00,51.4,47.9,30.10,SE,144,0.0,0.0,88,0.00,CLR,,0.00,WeatherDisplay:10.37,2013-09-06 06:25:00,
2013-09-06 01:30:00,51.3,48.2,30.10,SE,144,0.0,0.0,89,0.00,CLR,,0.00,WeatherDisplay:10.37,2013-09-06 06:30:00,
2013-09-06 01:35:00,51.1,48.0,30.10,SE,144,0.0,0.0,89,0.00,CLR,,0.00,WeatherDisplay:10.37,2013-09-06 06:35:00,
2013-09-06 01:40:00,51.1,48.0,30.10,SE,144,0.0,0.0,89,0.00,CLR,,0.00,WeatherDisplay:10.37,2013-09-06 06:40:00,
2013-09-06 01:45:00,51.0,48.2,30.10,SE,144,0.0,0.0,90,0.00,CLR,,0.00,WeatherDisplay:10.37,2013-09-06 06:45:00,
2013-09-06 01:50:00,50.8,48.0,30.10,SE,144,0.0,0.0,90,0.00,CLR,,0.00,WeatherDisplay:10.37,2013-09-06 06:50:00,
2013-09-06 01:55:00,50.7,48.2,30.10,SE,144,0.0,0.0,91,0.00,CLR,,0.00,WeatherDisplay:10.37,2013-09-06 06:55:00,
2013-09-06 02:00:00,50.5,48.0,30.10,SE,144,0.0,0.0,91,0.00,CLR,,0.00,WeatherDisplay:10.37,2013-09-06 07:00:00,
2013-09-06 02:05:00,50.5,48.0,30.10,SE,144,0.0,0.0,91,0.00,CLR,,0.00,WeatherDisplay:10.37,2013-09-06 07:05:00,
2013-09-06 02:10:00,50.4,47.9,30.10,SE,144,0.0,0.0,91,0.00,CLR,,0.00,WeatherDisplay:10.37,2013-09-06 07:10:00,
2013-09-06 02:15:00,50.4,47.9,30.10,SE,144,0.0,0.0,91,0.00,CLR,,0.00,WeatherDisplay:10.37,2013-09-06 07:15:00,
2013-09-06 02:20:00,50.2,47.7,30.10,SE,144,0.0,0.0,91,0.00,CLR,,0.00,WeatherDisplay:10.37,2013-09-06 07:20:00,
2013-09-06 02:25:00,49.9,47.4,30.10,SE,144,0.0,0.0,91,0.00,CLR,,0.00,WeatherDisplay:10.37,2013-09-06 07:25:00,
2013-09-06 02:30:00,49.8,47.6,30.10,SE,144,0.0,0.0,92,0.00,CLR,,0.00,WeatherDisplay:10.37,2013-09-06 07:30:00,
2013-09-06 02:40:00,49.4,47.2,30.10,SE,144,0.0,0.0,92,0.00,CLR,,0.00,WeatherDisplay:10.37,2013-09-06 07:40:00,
2013-09-06 02:45:00,49.4,47.2,30.10,SE,144,0.0,0.0,92,0.00,CLR,,0.00,WeatherDisplay:10.37,2013-09-06 07:45:00,
2013-09-06 02:50:00,49.2,47.3,30.09,SE,144,0.0,0.0,93,0.00,CLR,,0.00,WeatherDisplay:10.37,2013-09-06 07:50:00,
2013-09-06 02:55:00,49.2,47.3,30.09,SE,144,0.0,0.0,93,0.00,CLR,,0.00,WeatherDisplay:10.37,2013-09-06 07:55:00,
2013-09-06 03:00:00,49.2,47.3,30.09,SE,144,0.0,0.0,93,0.00,CLR,,0.00,WeatherDisplay:10.37,2013-09-06 08:00:00,
2013-09-06 03:05:00,49.3,47.6,30.09,SE,144,0.0,0.0,94,0.00,CLR,,0.00,WeatherDisplay:10.37,2013-09-06 08:05:00,
2013-09-06 03:10:00,49.4,47.7,30.09,SE,144,0.0,0.0,94,0.00,CLR,,0.00,WeatherDisplay:10.37,2013-09-06 08:10:00,
2013-09-06 03:15:00,49.5,47.8,30.09,SE,144,0.0,0.0,94,0.00,CLR,,0.00,WeatherDisplay:10.37,2013-09-06 08:15:00,
2013-09-06 03:20:00,49.6,47.9,30.10,SE,144,0.0,0.0,94,0.00,CLR,,0.00,WeatherDisplay:10.37,2013-09-06 08:20:00,
2013-09-06 03:25:00,49.6,47.9,30.10,SE,144,0.0,0.0,94,0.00,CLR,,0.00,WeatherDisplay:10.37,2013-09-06 08:25:00,
2013-09-06 03:30:00,49.6,47.9,30.10,SE,144,0.0,0.0,94,0.00,CLR,,0.00,WeatherDisplay:10.37,2013-09-06 08:30:00,
2013-09-06 03:35:00,49.8,48.1,30.10,SE,144,0.0,0.0,94,0.00,CLR,,0.00,WeatherDisplay:10.37,2013-09-06 08:35:00,
2013-09-06 03:40:00,49.8,48.1,30.10,SE,144,0.0,0.0,94,0.00,CLR,,0.00,WeatherDisplay:10.37,2013-09-06 08:40:00,
2013-09-06 03:45:00,49.8,48.1,30.10,SE,144,0.0,0.0,94,0.00,CLR,,0.00,WeatherDisplay:10.37,2013-09-06 08:45:00,
2013-09-06 03:50:00,49.8,48.1,30.10,SE,144,0.0,0.0,94,0.00,CLR,,0.00,WeatherDisplay:10.37,2013-09-06 08:50:00,
2013-09-06 03:55:00,49.8,48.4,30.10,SE,144,0.0,0.0,95,0.00,CLR,,0.00,WeatherDisplay:10.37,2013-09-06 08:55:00,
2013-09-06 04:00:00,49.9,48.5,30.10,SE,144,0.0,0.0,95,0.00,CLR,,0.00,WeatherDisplay:10.37,2013-09-06 09:00:00,
2013-09-06 04:05:00,50.2,49.1,30.10,SE,144,0.0,0.0,96,0.00,CLR,,0.00,WeatherDisplay:10.37,2013-09-06 09:05:00,
2013-09-06 04:10:00,50.4,49.3,30.10,SE,144,0.0,0.0,96,0.00,CLR,,0.00,WeatherDisplay:10.37,2013-09-06 09:10:00,
2013-09-06 04:15:00,50.5,49.4,30.10,SE,144,0.0,0.0,96,0.00,CLR,,0.00,WeatherDisplay:10.37,2013-09-06 09:15:00,
2013-09-06 04:20:00,50.4,49.3,30.10,SE,144,0.0,0.0,96,0.00,CLR,,0.00,WeatherDisplay:10.37,2013-09-06 09:20:00,
2013-09-06 04:25:00,50.4,49.3,30.10,SE,144,0.0,0.0,96,0.00,CLR,,0.00,WeatherDisplay:10.37,2013-09-06 09:25:00,
2013-09-06 04:30:00,50.2,49.1,30.10,SE,144,0.0,0.0,96,0.00,CLR,,0.00,WeatherDisplay:10.37,2013-09-06 09:30:00,
2013-09-06 04:35:00,50.2,49.1,30.10,SE,144,0.0,0.0,96,0.00,CLR,,0.00,WeatherDisplay:10.37,2013-09-06 09:35:00,
2013-09-06 04:40:00,50.2,49.1,30.10,SE,144,0.0,0.0,96,0.00,CLR,,0.00,WeatherDisplay:10.37,2013-09-06 09:40:00,
2013-09-06 04:45:00,50.4,49.3,30.10,SE,144,0.0,0.0,96,0.00,CLR,,0.00,WeatherDisplay:10.37,2013-09-06 09:45:00,
2013-09-06 04:50:00,50.5,49.7,30.10,SE,144,0.0,0.0,97,0.00,CLR,,0.00,WeatherDisplay:10.37,2013-09-06 09:50:00,
2013-09-06 04:55:00,50.8,49.9,30.10,SE,144,0.0,0.0,97,0.00,CLR,,0.00,WeatherDisplay:10.37,2013-09-06 09:55:00,
2013-09-06 05:00:00,50.8,50.0,30.10,SE,144,0.0,0.0,97,0.00,CLR,,0.00,WeatherDisplay:10.37,2013-09-06 10:00:00,
2013-09-06 05:05:00,51.0,50.2,30.10,SE,144,0.0,0.0,97,0.00,CLR,,0.00,WeatherDisplay:10.37,2013-09-06 10:05:00,
2013-09-06 05:10:00,51.3,50.8,30.10,SE,144,0.0,0.0,98,0.00,CLR,,0.00,WeatherDisplay:10.37,2013-09-06 10:10:00,
2013-09-06 05:15:00,51.4,50.9,30.10,SE,144,0.0,0.0,98,0.00,CLR,,0.00,WeatherDisplay:10.37,2013-09-06 10:15:00,
2013-09-06 05:20:00,51.6,51.1,30.10,SE,144,0.0,0.0,98,0.00,CLR,,0.00,WeatherDisplay:10.37,2013-09-06 10:20:00,
2013-09-06 05:25:00,51.7,51.2,30.10,SE,144,0.0,0.0,98,0.00,CLR,,0.00,WeatherDisplay:10.37,2013-09-06 10:25:00,
2013-09-06 05:30:00,51.9,51.4,30.10,SE,144,0.0,0.0,98,0.00,CLR,,0.00,WeatherDisplay:10.37,2013-09-06 10:30:00,
2013-09-06 05:35:00,52.0,51.5,30.10,SE,144,0.0,0.0,98,0.00,CLR,,0.00,WeatherDisplay:10.37,2013-09-06 10:35:00,
2013-09-06 05:40:00,52.2,51.7,30.10,SE,144,0.0,0.0,98,0.00,CLR,,0.00,WeatherDisplay:10.37,2013-09-06 10:40:00,
2013-09-06 05:45:00,52.2,52.0,30.10,SE,144,0.0,0.0,99,0.00,CLR,,0.00,WeatherDisplay:10.37,2013-09-06 10:45:00,
2013-09-06 05:50:00,52.3,51.8,30.10,SE,144,0.0,0.0,98,0.00,CLR,,0.00,WeatherDisplay:10.37,2013-09-06 10:50:00,
2013-09-06 05:55:00,52.3,52.0,30.10,SE,144,0.0,0.0,99,0.00,CLR,,0.00,WeatherDisplay:10.37,2013-09-06 10:55:00,
2013-09-06 06:00:00,52.3,51.8,30.10,SE,144,0.0,0.0,98,0.00,CLR,,0.00,WeatherDisplay:10.37,2013-09-06 11:00:00,
2013-09-06 06:05:00,52.3,51.8,30.10,SE,144,0.0,0.0,98,0.00,CLR,,0.00,WeatherDisplay:10.37,2013-09-06 11:05:00,
2013-09-06 06:10:00,52.3,51.8,30.10,SE,144,0.0,0.0,98,0.00,CLR,,0.00,WeatherDisplay:10.37,2013-09-06 11:10:00,
2013-09-06 06:15:00,52.5,52.2,30.10,SE,144,0.0,0.0,99,0.00,CLR,,0.00,WeatherDisplay:10.37,2013-09-06 11:15:00,
2013-09-06 06:20:00,52.8,52.5,30.10,SE,145,0.0,0.0,99,0.00,CLR,,0.00,WeatherDisplay:10.37,2013-09-06 11:20:00,
2013-09-06 06:25:00,52.9,52.6,30.10,SE,146,0.0,0.0,99,0.00,CLR,,0.00,WeatherDisplay:10.37,2013-09-06 11:25:00,
2013-09-06 06:30:00,53.2,52.9,30.10,SE,146,0.0,0.0,99,0.00,CLR,,0.00,WeatherDisplay:10.37,2013-09-06 11:30:00,
2013-09-06 06:35:00,53.3,53.0,30.10,SE,146,0.0,0.0,99,0.00,CLR,,0.00,WeatherDisplay:10.37,2013-09-06 11:35:00,
2013-09-06 06:40:00,53.3,53.0,30.10,SE,146,0.0,0.0,99,0.00,CLR,,0.00,WeatherDisplay:10.37,2013-09-06 11:40:00,
2013-09-06 06:45:00,53.5,53.2,30.10,SE,146,0.0,0.0,99,0.00,CLR,,0.00,WeatherDisplay:10.37,2013-09-06 11:45:00,
2013-09-06 06:50:00,53.5,53.2,30.10,SE,146,0.0,0.0,99,0.00,CLR,,0.00,WeatherDisplay:10.37,2013-09-06 11:50:00,
2013-09-06 06:55:00,53.6,53.3,30.10,SE,146,0.0,0.0,99,0.00,CLR,,0.00,WeatherDisplay:10.37,2013-09-06 11:55:00,
2013-09-06 07:00:00,53.8,53.5,30.10,SE,146,0.0,0.0,99,0.00,CLR,,0.00,WeatherDisplay:10.37,2013-09-06 12:00:00,
2013-09-06 07:05:00,54.1,53.8,30.09,SE,146,0.0,0.0,99,0.00,CLR,,0.00,WeatherDisplay:10.37,2013-09-06 12:05:00,
2013-09-06 07:10:00,54.4,54.1,30.09,SE,146,0.0,0.0,99,0.00,CLR,,0.00,WeatherDisplay:10.37,2013-09-06 12:10:00,
2013-09-06 07:15:00,54.7,54.4,30.09,SE,146,0.0,0.0,99,0.00,CLR,,0.00,WeatherDisplay:10.37,2013-09-06 12:15:00,
2013-09-06 07:20:00,55.0,54.7,30.09,SE,146,0.0,0.0,99,0.00,CLR,,0.00,WeatherDisplay:10.37,2013-09-06 12:20:00,
2013-09-06 07:25:00,55.3,55.0,30.09,SE,146,0.0,0.0,99,0.00,CLR,,0.00,WeatherDisplay:10.37,2013-09-06 12:25:00,
2013-09-06 07:30:00,55.6,55.0,30.09,SE,146,0.0,0.0,98,0.00,CLR,,0.00,WeatherDisplay:10.37,2013-09-06 12:30:00,
2013-09-06 07:35:00,55.9,55.3,30.09,SE,146,0.0,0.0,98,0.00,CLR,,0.00,WeatherDisplay:10.37,2013-09-06 12:35:00,
2013-09-06 07:40:00,56.2,55.6,30.09,SE,146,0.0,0.0,98,0.00,CLR,,0.00,WeatherDisplay:10.37,2013-09-06 12:40:00,
2013-09-06 07:45:00,56.5,55.7,30.09,SSE,147,0.0,0.0,97,0.00,CLR,,0.00,WeatherDisplay:10.37,2013-09-06 12:45:00,
2013-09-06 07:50:00,56.9,55.8,30.08,SSE,147,0.0,0.0,96,0.00,CLR,,0.00,WeatherDisplay:10.37,2013-09-06 12:50:00,
2013-09-06 07:55:00,57.3,56.1,30.08,SSE,147,0.0,0.0,96,0.00,CLR,,0.00,WeatherDisplay:10.37,2013-09-06 12:55:00,
2013-09-06 08:00:00,57.6,55.9,30.08,SSE,147,0.0,0.0,94,0.00,CLR,,0.00,WeatherDisplay:10.37,2013-09-06 13:00:00,
2013-09-06 08:05:00,58.0,56.3,30.08,SSE,147,0.0,0.0,94,0.00,CLR,,0.00,WeatherDisplay:10.37,2013-09-06 13:05:00,
2013-09-06 08:10:00,58.4,56.4,30.08,SSE,147,0.0,0.0,93,0.00,CLR,,0.00,WeatherDisplay:10.37,2013-09-06 13:10:00,
2013-09-06 08:15:00,58.9,56.9,30.08,SSE,147,0.0,0.0,93,0.00,CLR,,0.00,WeatherDisplay:10.37,2013-09-06 13:15:00,
2013-09-06 08:20:00,59.3,56.7,30.08,SSE,147,0.0,0.0,91,0.00,CLR,,0.00,WeatherDisplay:10.37,2013-09-06 13:20:00,
2013-09-06 08:25:00,59.8,56.9,30.08,SSE,148,0.0,0.0,90,0.00,CLR,,0.00,WeatherDisplay:10.37,2013-09-06 13:25:00,
2013-09-06 08:30:00,60.2,56.9,30.08,SSE,147,0.0,0.0,89,0.00,CLR,,0.00,WeatherDisplay:10.37,2013-09-06 13:30:00,
2013-09-06 08:35:00,60.7,57.1,30.07,SSE,147,0.0,0.0,88,0.00,CLR,,0.00,WeatherDisplay:10.37,2013-09-06 13:35:00,
2013-09-06 08:40:00,61.2,57.7,30.07,SSE,147,0.0,0.0,88,0.00,CLR,,0.00,WeatherDisplay:10.37,2013-09-06 13:40:00,
2013-09-06 08:45:00,61.9,58.0,30.07,SSE,147,0.0,0.0,87,0.00,CLR,,0.00,WeatherDisplay:10.37,2013-09-06 13:45:00,
2013-09-06 08:50:00,62.4,58.2,30.07,SSE,148,0.0,0.0,86,0.00,CLR,,0.00,WeatherDisplay:10.37,2013-09-06 13:50:00,
2013-09-06 08:55:00,62.9,58.6,30.07,SSE,148,0.0,0.0,86,0.00,CLR,,0.00,WeatherDisplay:10.37,2013-09-06 13:55:00,
2013-09-06 09:00:00,63.2,58.3,30.07,SSE,147,0.0,0.0,84,0.00,CLR,,0.00,WeatherDisplay:10.37,2013-09-06 14:00:00,
2013-09-06 09:05:00,63.4,58.1,30.06,SSE,148,0.0,0.0,83,0.00,CLR,,0.00,WeatherDisplay:10.37,2013-09-06 14:05:00,
2013-09-06 09:10:00,63.7,58.1,30.06,SSE,149,0.0,0.0,82,0.00,CLR,,0.00,WeatherDisplay:10.37,2013-09-06 14:10:00,
2013-09-06 09:15:00,64.0,58.0,30.06,SSE,149,0.0,0.0,81,0.00,CLR,,0.00,WeatherDisplay:10.37,2013-09-06 14:15:00,
2013-09-06 09:20:00,64.2,58.3,30.06,SSE,147,0.0,0.0,81,0.00,CLR,,0.00,WeatherDisplay:10.37,2013-09-06 14:20:00,
2013-09-06 09:25:00,64.7,58.7,30.06,SE,144,0.0,0.0,81,0.00,CLR,,0.00,WeatherDisplay:10.37,2013-09-06 14:25:00,
2013-09-06 09:30:00,65.0,58.3,30.06,SE,144,0.0,0.0,79,0.00,CLR,,0.00,WeatherDisplay:10.37,2013-09-06 14:30:00,
2013-09-06 09:35:00,65.2,57.4,30.06,SSE,147,0.0,0.0,76,0.00,CLR,,0.00,WeatherDisplay:10.37,2013-09-06 14:35:00,
2013-09-06 09:40:00,65.5,57.4,30.06,SSE,151,0.0,0.0,75,0.00,CLR,,0.00,WeatherDisplay:10.37,2013-09-06 14:40:00,
2013-09-06 09:45:00,65.8,56.5,30.06,SSE,153,0.0,0.0,72,0.00,CLR,,0.00,WeatherDisplay:10.37,2013-09-06 14:45:00,
2013-09-06 09:50:00,66.1,55.6,30.06,SSE,155,0.0,0.0,69,0.00,CLR,,0.00,WeatherDisplay:10.37,2013-09-06 14:50:00,
2013-09-06 09:55:00,66.4,56.3,30.06,SSE,155,0.0,0.0,70,0.00,CLR,,0.00,WeatherDisplay:10.37,2013-09-06 14:55:00,
2013-09-06 10:00:00,66.9,56.8,30.06,SSE,155,0.0,0.0,70,0.00,CLR,,0.00,WeatherDisplay:10.37,2013-09-06 15:00:00,
2013-09-06 10:05:00,67.3,56.8,30.05,SSE,155,0.0,0.0,69,0.00,CLR,,0.00,WeatherDisplay:10.37,2013-09-06 15:05:00,
2013-09-06 10:10:00,67.8,57.2,30.05,SSE,155,0.0,0.0,69,0.00,CLR,,0.00,WeatherDisplay:10.37,2013-09-06 15:10:00,
2013-09-06 10:15:00,68.1,57.2,30.05,SSE,155,0.0,0.0,68,0.00,CLR,,0.00,WeatherDisplay:10.37,2013-09-06 15:15:00,
2013-09-06 10:20:00,68.5,57.5,30.04,SSE,156,0.0,0.0,68,0.00,CLR,,0.00,WeatherDisplay:10.37,2013-09-06 15:20:00,
2013-09-06 10:25:00,68.9,57.9,30.04,SSE,156,0.0,0.0,68,0.00,CLR,,0.00,WeatherDisplay:10.37,2013-09-06 15:25:00,
2013-09-06 10:30:00,69.3,58.3,30.04,SSE,156,0.0,0.0,68,0.00,CLR,,0.00,WeatherDisplay:10.37,2013-09-06 15:30:00,
2013-09-06 10:35:00,69.6,58.2,30.04,SSE,157,0.0,0.0,67,0.00,CLR,,0.00,WeatherDisplay:10.37,2013-09-06 15:35:00,
2013-09-06 10:40:00,69.9,58.4,30.04,SSE,160,0.0,0.0,67,0.00,CLR,,0.00,WeatherDisplay:10.37,2013-09-06 15:40:00,
2013-09-06 10:45:00,70.3,59.3,30.04,SSE,161,0.0,0.0,68,0.00,CLR,,0.00,WeatherDisplay:10.37,2013-09-06 15:45:00,
2013-09-06 10:50:00,70.8,58.9,30.05,SSE,161,0.0,0.0,66,0.00,CLR,,0.00,WeatherDisplay:10.37,2013-09-06 15:50:00,
2013-09-06 10:55:00,71.5,59.9,30.05,SSE,161,0.0,0.0,67,0.00,CLR,,0.00,WeatherDisplay:10.37,2013-09-06 15:55:00,
2013-09-06 11:00:00,72.0,59.6,30.05,SSE,161,0.0,0.0,65,0.00,CLR,,0.00,WeatherDisplay:10.37,2013-09-06 16:00:00,
2013-09-06 11:05:00,72.5,60.5,30.05,SSE,161,0.0,0.0,66,0.00,CLR,,0.00,WeatherDisplay:10.37,2013-09-06 16:05:00,
2013-09-06 11:10:00,72.9,60.0,30.05,SSE,161,0.0,0.0,64,0.00,CLR,,0.00,WeatherDisplay:10.37,2013-09-06 16:10:00,
2013-09-06 11:15:00,73.3,60.8,30.05,SSE,161,0.0,0.0,65,0.00,CLR,,0.00,WeatherDisplay:10.37,2013-09-06 16:15:00,
2013-09-06 11:20:00,73.9,61.4,30.04,SSE,161,0.0,0.0,65,0.00,CLR,,0.00,WeatherDisplay:10.37,2013-09-06 16:20:00,
2013-09-06 11:25:00,74.2,61.7,30.04,SSE,161,0.0,0.0,65,0.00,CLR,,0.00,WeatherDisplay:10.37,2013-09-06 16:25:00,
2013-09-06 11:30:00,74.6,62.1,30.04,SSE,160,0.0,0.0,65,0.00,CLR,,0.00,WeatherDisplay:10.37,2013-09-06 16:30:00,
2013-09-06 11:35:00,75.1,61.6,30.04,SSE,159,0.0,0.0,63,0.00,CLR,,0.00,WeatherDisplay:10.37,2013-09-06 16:35:00,
2013-09-06 11:40:00,75.3,62.7,30.04,SSE,159,0.0,0.0,65,0.00,CLR,,0.00,WeatherDisplay:10.37,2013-09-06 16:40:00,
2013-09-06 11:45:00,75.6,62.1,30.04,SSE,159,0.0,0.0,63,0.00,CLR,,0.00,WeatherDisplay:10.37,2013-09-06 16:45:00,
2013-09-06 11:50:00,75.6,62.1,30.04,SSE,159,0.0,0.0,63,0.00,CLR,,0.00,WeatherDisplay:10.37,2013-09-06 16:50:00,
2013-09-06 11:55:00,75.8,62.8,30.04,SSE,159,0.0,0.0,64,0.00,CLR,,0.00,WeatherDisplay:10.37,2013-09-06 16:55:00,
2013-09-06 12:00:00,76.0,63.4,30.04,SSE,160,0.0,0.0,65,0.00,CLR,,0.00,WeatherDisplay:10.37,2013-09-06 17:00:00,
2013-09-06 12:05:00,76.5,63.9,30.03,SSE,160,0.0,0.0,65,0.00,CLR,,0.00,WeatherDisplay:10.37,2013-09-06 17:05:00,
2013-09-06 12:10:00,76.9,63.4,30.03,SSE,161,0.0,0.0,63,0.00,CLR,,0.00,WeatherDisplay:10.37,2013-09-06 17:10:00,
2013-09-06 12:15:00,77.2,63.6,30.03,SSE,164,0.0,0.0,63,0.00,CLR,,0.00,WeatherDisplay:10.37,2013-09-06 17:15:00,
2013-09-06 12:20:00,77.6,64.9,30.02,SSE,164,0.0,0.0,65,0.00,CLR,,0.00,WeatherDisplay:10.37,2013-09-06 17:20:00,
2013-09-06 12:25:00,78.0,65.2,30.02,SSE,164,0.0,0.0,65,0.00,CLR,,0.00,WeatherDisplay:10.37,2013-09-06 17:25:00,
2013-09-06 12:30:00,78.5,65.3,30.02,SSE,164,0.0,0.0,64,0.00,CLR,,0.00,WeatherDisplay:10.37,2013-09-06 17:30:00,
2013-09-06 12:35:00,78.8,65.6,30.00,SSE,164,0.0,0.0,64,0.00,CLR,,0.00,WeatherDisplay:10.37,2013-09-06 17:35:00,
2013-09-06 12:40:00,79.1,64.5,30.00,SSE,163,0.0,0.0,61,0.00,CLR,,0.00,WeatherDisplay:10.37,2013-09-06 17:40:00,
2013-09-06 12:45:00,79.4,65.2,30.00,South,177,0.0,0.0,62,0.00,CLR,,0.00,WeatherDisplay:10.37,2013-09-06 17:45:00,
2013-09-06 12:50:00,79.8,66.1,29.99,West,262,0.0,0.0,63,0.00,CLR,,0.00,WeatherDisplay:10.37,2013-09-06 17:50:00,
2013-09-06 12:55:00,80.0,66.3,29.99,West,280,0.0,0.0,63,0.00,CLR,,0.00,WeatherDisplay:10.37,2013-09-06 17:55:00,
2013-09-06 13:00:00,80.3,66.1,29.99,SE,129,0.0,0.0,62,0.00,CLR,,0.00,WeatherDisplay:10.37,2013-09-06 18:00:00,
2013-09-06 13:05:00,80.5,66.3,29.99,SSW,200,0.0,0.0,62,0.00,CLR,,0.00,WeatherDisplay:10.37,2013-09-06 18:05:00,
2013-09-06 13:10:00,80.7,66.0,29.99,SW,218,0.0,0.0,61,0.00,CLR,,0.00,WeatherDisplay:10.37,2013-09-06 18:10:00,
2013-09-06 13:15:00,80.9,65.7,29.99,SSW,203,0.0,0.0,60,0.00,CLR,,0.00,WeatherDisplay:10.37,2013-09-06 18:15:00,
2013-09-06 13:20:00,81.1,67.3,29.98,SW,218,0.0,0.0,63,0.00,CLR,,0.00,WeatherDisplay:10.37,2013-09-06 18:20:00,
2013-09-06 13:25:00,81.2,66.5,29.98,SSW,207,0.0,0.0,61,0.00,CLR,,0.00,WeatherDisplay:10.37,2013-09-06 18:25:00,
2013-09-06 13:30:00,81.4,65.7,29.98,SSW,200,0.0,0.0,59,0.00,CLR,,0.00,WeatherDisplay:10.37,2013-09-06 18:30:00,
2013-09-06 13:35:00,81.6,65.9,29.97,SW,226,0.0,0.0,59,0.00,CLR,,0.00,WeatherDisplay:10.37,2013-09-06 18:35:00,
2013-09-06 13:40:00,81.6,65.9,29.97,SW,226,0.0,0.0,59,0.00,CLR,,0.00,WeatherDisplay:10.37,2013-09-06 18:40:00,
2013-09-06 13:45:00,81.8,66.1,29.97,SSW,198,0.0,0.0,59,0.00,CLR,,0.00,WeatherDisplay:10.37,2013-09-06 18:45:00,
2013-09-06 13:50:00,82.1,66.3,29.97,South,178,0.0,0.0,59,0.00,CLR,,0.00,WeatherDisplay:10.37,2013-09-06 18:50:00,
2013-09-06 13:55:00,82.2,66.9,29.97,South,175,0.0,0.0,60,0.00,CLR,,0.00,WeatherDisplay:10.37,2013-09-06 18:55:00,
2013-09-06 14:00:00,82.2,66.4,29.97,South,185,0.0,0.0,59,0.00,CLR,,0.00,WeatherDisplay:10.37,2013-09-06 19:00:00,
2013-09-06 14:05:00,82.2,66.9,29.96,South,177,0.0,0.0,60,0.00,CLR,,0.00,WeatherDisplay:10.37,2013-09-06 19:05:00,
2013-09-06 14:10:00,82.4,66.7,29.96,SSE,168,0.0,0.0,59,0.00,CLR,,0.00,WeatherDisplay:10.37,2013-09-06 19:10:00,
2013-09-06 14:15:00,82.8,66.5,29.96,South,169,0.0,0.0,58,0.00,CLR,,0.00,WeatherDisplay:10.37,2013-09-06 19:15:00,
2013-09-06 14:20:00,83.0,66.7,29.95,South,178,0.0,0.0,58,0.00,CLR,,0.00,WeatherDisplay:10.37,2013-09-06 19:20:00,
2013-09-06 14:25:00,83.2,67.4,29.95,South,191,0.0,0.0,59,0.00,CLR,,0.00,WeatherDisplay:10.37,2013-09-06 19:25:00,
2013-09-06 14:30:00,83.4,67.6,29.95,SSW,199,0.0,0.0,59,0.00,CLR,,0.00,WeatherDisplay:10.37,2013-09-06 19:30:00,
2013-09-06 14:35:00,83.4,67.6,29.94,SSW,204,0.0,0.0,59,0.00,CLR,,0.00,WeatherDisplay:10.37,2013-09-06 19:35:00,
2013-09-06 14:40:00,83.6,67.8,29.94,SSW,207,0.0,0.0,59,0.00,CLR,,0.00,WeatherDisplay:10.37,2013-09-06 19:40:00,
2013-09-06 14:45:00,83.6,67.3,29.94,SSW,207,0.0,0.0,58,0.00,CLR,,0.00,WeatherDisplay:10.37,2013-09-06 19:45:00,
2013-09-06 14:50:00,83.6,66.8,29.94,SSW,207,0.0,0.0,57,0.00,CLR,,0.00,WeatherDisplay:10.37,2013-09-06 19:50:00,
2013-09-06 14:55:00,83.6,67.3,29.94,SSW,203,0.0,0.0,58,0.00,CLR,,0.00,WeatherDisplay:10.37,2013-09-06 19:55:00,
2013-09-06 15:00:00,83.6,66.8,29.94,SW,220,0.0,0.0,57,0.00,CLR,,0.00,WeatherDisplay:10.37,2013-09-06 20:00:00,
2013-09-06 15:05:00,83.8,67.4,29.94,WSW,251,0.0,0.0,58,0.00,CLR,,0.00,WeatherDisplay:10.37,2013-09-06 20:05:00,
2013-09-06 15:10:00,84.0,68.1,29.94,West,261,0.0,0.0,59,0.00,CLR,,0.00,WeatherDisplay:10.37,2013-09-06 20:10:00,
2013-09-06 15:15:00,84.0,68.1,29.94,WSW,243,0.0,0.0,59,0.00,CLR,,0.00,WeatherDisplay:10.37,2013-09-06 20:15:00,
2013-09-06 15:20:00,84.0,67.1,29.93,SW,228,0.0,0.0,57,0.00,CLR,,0.00,WeatherDisplay:10.37,2013-09-06 20:20:00,
2013-09-06 15:25:00,84.0,67.1,29.93,SW,222,0.0,0.0,57,0.00,CLR,,0.00,WeatherDisplay:10.37,2013-09-06 20:25:00,
2013-09-06 15:30:00,84.0,68.1,29.93,SW,217,0.0,0.0,59,0.00,CLR,,0.00,WeatherDisplay:10.37,2013-09-06 20:30:00,
2013-09-06 15:35:00,84.0,68.6,29.93,SSW,208,0.0,0.0,60,0.00,CLR,,0.00,WeatherDisplay:10.37,2013-09-06 20:35:00,
2013-09-06 15:40:00,84.0,67.6,29.93,SSW,204,0.0,0.0,58,0.00,CLR,,0.00,WeatherDisplay:10.37,2013-09-06 20:40:00,
2013-09-06 15:45:00,84.0,68.6,29.93,SSW,211,0.0,0.0,60,0.00,CLR,,0.00,WeatherDisplay:10.37,2013-09-06 20:45:00,
2013-09-06 15:50:00,83.8,67.9,29.92,SW,227,0.0,0.0,59,0.00,CLR,,0.00,WeatherDisplay:10.37,2013-09-06 20:50:00,
2013-09-06 15:55:00,83.8,67.9,29.92,SW,220,0.0,0.0,59,0.00,CLR,,0.00,WeatherDisplay:10.37,2013-09-06 20:55:00,
2013-09-06 16:00:00,83.6,67.8,29.92,SW,217,0.0,0.0,59,0.00,CLR,,0.00,WeatherDisplay:10.37,2013-09-06 21:00:00,
2013-09-06 16:05:00,83.6,67.8,29.92,SW,215,0.0,0.0,59,0.00,CLR,,0.00,WeatherDisplay:10.37,2013-09-06 21:05:00,
2013-09-06 16:10:00,83.4,67.6,29.92,SSW,205,0.0,0.0,59,0.00,CLR,,0.00,WeatherDisplay:10.37,2013-09-06 21:10:00,
2013-09-06 16:15:00,83.3,68.5,29.92,SSW,211,0.0,0.0,61,0.00,CLR,,0.00,WeatherDisplay:10.37,2013-09-06 21:15:00,
2013-09-06 16:20:00,83.2,67.9,29.92,SSW,209,0.0,0.0,60,0.00,CLR,,0.00,WeatherDisplay:10.37,2013-09-06 21:20:00,
2013-09-06 16:25:00,83.0,67.7,29.92,SW,214,0.0,0.0,60,0.00,CLR,,0.00,WeatherDisplay:10.37,2013-09-06 21:25:00,
2013-09-06 16:30:00,83.0,67.2,29.92,SW,228,0.0,0.0,59,0.00,CLR,,0.00,WeatherDisplay:10.37,2013-09-06 21:30:00,
2013-09-06 16:35:00,83.0,67.7,29.91,WSW,243,0.0,0.0,60,0.00,CLR,,0.00,WeatherDisplay:10.37,2013-09-06 21:35:00,
2013-09-06 16:40:00,83.0,68.6,29.91,SSW,209,0.0,0.0,62,0.00,CLR,,0.00,WeatherDisplay:10.37,2013-09-06 21:40:00,
2013-09-06 16:45:00,82.9,68.1,29.91,South,188,0.0,0.0,61,0.00,CLR,,0.00,WeatherDisplay:10.37,2013-09-06 21:45:00,
2013-09-06 16:50:00,82.8,68.4,29.91,SSW,201,0.0,0.0,62,0.00,CLR,,0.00,WeatherDisplay:10.37,2013-09-06 21:50:00,
2013-09-06 16:55:00,82.8,68.9,29.91,SSW,193,0.0,0.0,63,0.00,CLR,,0.00,WeatherDisplay:10.37,2013-09-06 21:55:00,
2013-09-06 17:00:00,82.6,68.3,29.91,South,190,0.0,0.0,62,0.00,CLR,,0.00,WeatherDisplay:10.37,2013-09-06 22:00:00,
2013-09-06 17:05:00,82.5,68.1,29.91,SSW,197,0.0,0.0,62,0.00,CLR,,0.00,WeatherDisplay:10.37,2013-09-06 22:05:00,
2013-09-06 17:10:00,82.4,69.0,29.91,SSW,199,0.0,0.0,64,0.00,CLR,,0.00,WeatherDisplay:10.37,2013-09-06 22:10:00,
2013-09-06 17:15:00,82.2,67.9,29.91,South,191,0.0,0.0,62,0.00,CLR,,0.00,WeatherDisplay:10.37,2013-09-06 22:15:00,
2013-09-06 17:20:00,82.0,68.2,29.90,South,182,0.0,0.0,63,0.00,CLR,,0.00,WeatherDisplay:10.37,2013-09-06 22:20:00,
2013-09-06 17:25:00,81.8,68.4,29.90,South,180,0.0,0.0,64,0.00,CLR,,0.00,WeatherDisplay:10.37,2013-09-06 22:25:00,
2013-09-06 17:30:00,81.8,68.8,29.90,SSW,197,0.0,0.0,65,0.00,CLR,,0.00,WeatherDisplay:10.37,2013-09-06 22:30:00,
2013-09-06 17:35:00,81.6,69.1,29.90,SSW,209,0.0,0.0,66,0.00,CLR,,0.00,WeatherDisplay:10.37,2013-09-06 22:35:00,
2013-09-06 17:40:00,81.4,68.5,29.90,SW,216,0.0,0.0,65,0.00,CLR,,0.00,WeatherDisplay:10.37,2013-09-06 22:40:00,
2013-09-06 17:45:00,81.6,68.7,29.90,SW,226,0.0,0.0,65,0.00,CLR,,0.00,WeatherDisplay:10.37,2013-09-06 22:45:00,
2013-09-06 17:50:00,81.8,68.9,29.91,SW,232,0.0,0.0,65,0.00,CLR,,0.00,WeatherDisplay:10.37,2013-09-06 22:50:00,
2013-09-06 17:55:00,81.8,69.3,29.91,SW,234,0.0,0.0,66,0.00,CLR,,0.00,WeatherDisplay:10.37,2013-09-06 22:55:00,
2013-09-06 18:00:00,81.8,69.3,29.91,SSW,211,0.0,0.0,66,0.00,CLR,,0.00,WeatherDisplay:10.37,2013-09-06 23:00:00,
2013-09-06 18:05:00,81.6,69.1,29.90,SSW,200,0.0,0.0,66,0.00,CLR,,0.00,WeatherDisplay:10.37,2013-09-06 23:05:00,
2013-09-06 18:10:00,81.2,68.8,29.90,SSW,208,0.0,0.0,66,0.00,CLR,,0.00,WeatherDisplay:10.37,2013-09-06 23:10:00,
2013-09-06 18:15:00,80.9,68.5,29.90,SW,214,0.0,0.0,66,0.00,CLR,,0.00,WeatherDisplay:10.37,2013-09-06 23:15:00,
2013-09-06 18:20:00,80.5,69.0,29.89,SW,216,0.0,0.0,68,0.00,CLR,,0.00,WeatherDisplay:10.37,2013-09-06 23:20:00,
2013-09-06 18:25:00,80.1,69.0,29.89,SW,229,0.0,0.0,69,0.00,CLR,,0.00,WeatherDisplay:10.37,2013-09-06 23:25:00,
2013-09-06 18:30:00,79.6,69.0,29.89,WSW,238,0.0,0.0,70,0.00,CLR,,0.00,WeatherDisplay:10.37,2013-09-06 23:30:00,
2013-09-06 18:35:00,79.2,68.6,29.89,WSW,238,0.0,0.0,70,0.00,CLR,,0.00,WeatherDisplay:10.37,2013-09-06 23:35:00,
2013-09-06 18:40:00,78.9,68.7,29.89,SW,235,0.0,0.0,71,0.00,CLR,,0.00,WeatherDisplay:10.37,2013-09-06 23:40:00,
2013-09-06 18:45:00,78.6,68.4,29.89,SSW,207,0.0,0.0,71,0.00,CLR,,0.00,WeatherDisplay:10.37,2013-09-06 23:45:00,
2013-09-06 18:50:00,78.3,68.5,29.88,SSW,199,0.0,0.0,72,0.00,CLR,,0.00,WeatherDisplay:10.37,2013-09-06 23:50:00,
2013-09-06 18:55:00,77.9,68.1,29.88,SSW,206,0.0,0.0,72,0.00,CLR,,0.00,WeatherDisplay:10.37,2013-09-06 23:55:00,
2013-09-06 19:00:00,77.5,68.2,29.88,SSW,204,0.0,0.0,73,0.00,CLR,,0.00,WeatherDisplay:10.37,2013-09-07 00:00:00,
2013-09-06 19:05:00,77.2,67.8,29.87,SSW,197,0.0,0.0,73,0.00,CLR,,0.00,WeatherDisplay:10.37,2013-09-07 00:05:00,
2013-09-06 19:10:00,76.8,67.9,29.87,SSW,193,0.0,0.0,74,0.00,CLR,,0.00,WeatherDisplay:10.37,2013-09-07 00:10:00,
2013-09-06 19:15:00,76.5,67.6,29.87,South,184,0.0,0.0,74,0.00,CLR,,0.00,WeatherDisplay:10.37,2013-09-07 00:15:00,
2013-09-06 19:20:00,76.3,67.8,29.88,South,174,0.0,0.0,75,0.00,CLR,,0.00,WeatherDisplay:10.37,2013-09-07 00:20:00,
2013-09-06 19:25:00,76.1,67.6,29.88,South,174,0.0,0.0,75,0.00,CLR,,0.00,WeatherDisplay:10.37,2013-09-07 00:25:00,
2013-09-06 19:30:00,75.8,67.7,29.88,South,174,0.0,0.0,76,0.00,CLR,,0.00,WeatherDisplay:10.37,2013-09-07 00:30:00,
2013-09-06 19:35:00,75.6,67.5,29.87,South,178,0.0,0.0,76,0.00,CLR,,0.00,WeatherDisplay:10.37,2013-09-07 00:35:00,
2013-09-06 19:40:00,75.3,67.6,29.87,South,188,0.0,0.0,77,0.00,CLR,,0.00,WeatherDisplay:10.37,2013-09-07 00:40:00,
2013-09-06 19:45:00,75.1,67.4,29.87,South,187,0.0,0.0,77,0.00,CLR,,0.00,WeatherDisplay:10.37,2013-09-07 00:45:00,
2013-09-06 19:50:00,74.7,67.4,29.87,South,171,0.0,0.0,78,0.00,CLR,,0.00,WeatherDisplay:10.37,2013-09-07 00:50:00,
2013-09-06 19:55:00,74.6,67.3,29.87,SSE,161,0.0,0.0,78,0.00,CLR,,0.00,WeatherDisplay:10.37,2013-09-07 00:55:00,
2013-09-06 20:00:00,74.4,67.5,29.87,SSE,161,0.0,0.0,79,0.00,CLR,,0.00,WeatherDisplay:10.37,2013-09-07 01:00:00,
2013-09-06 20:05:00,74.2,67.2,29.88,SSE,161,0.0,0.0,79,0.00,CLR,,0.00,WeatherDisplay:10.37,2013-09-07 01:05:00,
2013-09-06 20:10:00,73.9,67.3,29.88,SSE,163,0.0,0.0,80,0.00,CLR,,0.00,WeatherDisplay:10.37,2013-09-07 01:10:00,
2013-09-06 20:15:00,73.7,67.1,29.88,SSE,166,0.0,0.0,80,0.00,CLR,,0.00,WeatherDisplay:10.37,2013-09-07 01:15:00,
2013-09-06 20:20:00,73.5,66.9,29.87,SSE,167,0.0,0.0,80,0.00,CLR,,0.00,WeatherDisplay:10.37,2013-09-07 01:20:00,
2013-09-06 20:25:00,73.2,67.1,29.87,SSE,167,0.0,0.0,81,0.00,CLR,,0.00,WeatherDisplay:10.37,2013-09-07 01:25:00,
2013-09-06 20:30:00,73.0,67.2,29.87,SSE,167,0.0,0.0,82,0.00,CLR,,0.00,WeatherDisplay:10.37,2013-09-07 01:30:00,
2013-09-06 20:35:00,72.8,67.0,29.88,SSE,167,0.0,0.0,82,0.00,CLR,,0.00,WeatherDisplay:10.37,2013-09-07 01:35:00,
2013-09-06 20:40:00,72.7,67.2,29.88,SSE,167,0.0,0.0,83,0.00,CLR,,0.00,WeatherDisplay:10.37,2013-09-07 01:40:00,
2013-09-06 20:45:00,72.4,67.0,29.88,SSE,167,0.0,0.0,83,0.00,CLR,,0.00,WeatherDisplay:10.37,2013-09-07 01:45:00,
2013-09-06 20:50:00,72.2,67.1,29.88,SSE,167,0.0,0.0,84,0.00,CLR,,0.00,WeatherDisplay:10.37,2013-09-07 01:50:00,
2013-09-06 20:55:00,72.0,66.9,29.88,SSE,167,0.0,0.0,84,0.00,CLR,,0.00,WeatherDisplay:10.37,2013-09-07 01:55:00,
2013-09-06 21:00:00,71.8,67.0,29.88,SSE,168,0.0,0.0,85,0.00,CLR,,0.00,WeatherDisplay:10.37,2013-09-07 02:00:00,
2013-09-06 21:05:00,71.6,66.8,29.88,SSE,167,0.0,0.0,85,0.00,CLR,,0.00,WeatherDisplay:10.37,2013-09-07 02:05:00,
2013-09-06 21:10:00,71.5,66.8,29.88,SSE,167,0.0,0.0,85,0.00,CLR,,0.00,WeatherDisplay:10.37,2013-09-07 02:10:00,
2013-09-06 21:15:00,71.3,66.6,29.88,SSE,167,0.0,0.0,85,0.00,CLR,,0.00,WeatherDisplay:10.37,2013-09-07 02:15:00,
2013-09-06 21:20:00,71.3,66.6,29.87,SSE,167,0.0,0.0,85,0.00,CLR,,0.00,WeatherDisplay:10.37,2013-09-07 02:20:00,
2013-09-06 21:25:00,71.3,66.6,29.87,SSE,167,0.0,0.0,85,0.00,CLR,,0.00,WeatherDisplay:10.37,2013-09-07 02:25:00,
2013-09-06 21:30:00,71.1,66.4,29.87,SSE,167,0.0,0.0,85,0.00,CLR,,0.00,WeatherDisplay:10.37,2013-09-07 02:30:00,
2013-09-06 21:35:00,71.1,66.4,29.87,SSE,167,0.0,0.0,85,0.00,CLR,,0.00,WeatherDisplay:10.37,2013-09-07 02:35:00,
2013-09-06 21:40:00,70.9,66.5,29.87,SSE,167,0.0,0.0,86,0.00,CLR,,0.00,WeatherDisplay:10.37,2013-09-07 02:40:00,
2013-09-06 21:45:00,70.9,66.5,29.87,SSE,167,0.0,0.0,86,0.00,CLR,,0.00,WeatherDisplay:10.37,2013-09-07 02:45:00,
2013-09-06 21:50:00,70.9,66.5,29.88,SSE,167,0.0,0.0,86,0.00,CLR,,0.00,WeatherDisplay:10.37,2013-09-07 02:50:00,
2013-09-06 21:55:00,70.8,66.4,29.88,SSE,167,0.0,0.0,86,0.00,CLR,,0.00,WeatherDisplay:10.37,2013-09-07 02:55:00,
2013-09-06 22:00:00,70.8,66.4,29.88,SSE,168,0.0,0.0,86,0.00,CLR,,0.00,WeatherDisplay:10.37,2013-09-07 03:00:00,
2013-09-06 22:05:00,70.7,66.3,29.87,SSE,168,0.0,0.0,86,0.00,CLR,,0.00,WeatherDisplay:10.37,2013-09-07 03:05:00,
2013-09-06 22:10:00,70.6,66.2,29.87,SSE,168,0.0,0.0,86,0.00,CLR,,0.00,WeatherDisplay:10.37,2013-09-07 03:10:00,
2013-09-06 22:15:00,70.4,66.3,29.87,SSE,168,0.0,0.0,87,0.00,CLR,,0.00,WeatherDisplay:10.37,2013-09-07 03:15:00,
2013-09-06 22:20:00,70.3,66.2,29.87,SSE,168,0.0,0.0,87,0.00,CLR,,0.00,WeatherDisplay:10.37,2013-09-07 03:20:00,
2013-09-06 22:25:00,70.1,66.0,29.87,SSE,168,0.0,0.0,87,0.00,CLR,,0.00,WeatherDisplay:10.37,2013-09-07 03:25:00,
2013-09-06 22:30:00,70.1,66.4,29.87,South,169,0.0,0.0,88,0.00,CLR,,0.00,WeatherDisplay:10.37,2013-09-07 03:30:00,
2013-09-06 22:35:00,69.9,66.2,29.87,South,169,0.0,0.0,88,0.00,CLR,,0.00,WeatherDisplay:10.37,2013-09-07 03:35:00,
2013-09-06 22:40:00,69.9,66.2,29.87,South,169,0.0,0.0,88,0.00,CLR,,0.00,WeatherDisplay:10.37,2013-09-07 03:40:00,
2013-09-06 22:45:00,69.8,66.1,29.87,South,169,0.0,0.0,88,0.00,CLR,,0.00,WeatherDisplay:10.37,2013-09-07 03:45:00,
2013-09-06 22:50:00,69.8,66.4,29.86,South,169,0.0,0.0,89,0.00,CLR,,0.00,WeatherDisplay:10.37,2013-09-07 03:50:00,
2013-09-06 22:55:00,69.8,66.4,29.86,South,169,0.0,0.0,89,0.00,CLR,,0.00,WeatherDisplay:10.37,2013-09-07 03:55:00,
2013-09-06 23:00:00,69.7,66.3,29.86,South,169,0.0,0.0,89,0.00,CLR,,0.00,WeatherDisplay:10.37,2013-09-07 04:00:00,
2013-09-06 23:05:00,69.6,66.5,29.86,South,169,0.0,0.0,90,0.00,CLR,,0.00,WeatherDisplay:10.37,2013-09-07 04:05:00,
2013-09-06 23:10:00,69.6,66.5,29.86,South,169,0.0,0.0,90,0.00,CLR,,0.00,WeatherDisplay:10.37,2013-09-07 04:10:00,
2013-09-06 23:15:00,69.4,66.3,29.86,South,170,0.0,0.0,90,0.00,CLR,,0.00,WeatherDisplay:10.37,2013-09-07 04:15:00,
2013-09-06 23:20:00,69.4,66.7,29.86,South,170,0.0,0.0,91,0.00,CLR,,0.00,WeatherDisplay:10.37,2013-09-07 04:20:00,
2013-09-06 23:25:00,69.3,66.6,29.86,South,171,0.0,0.0,91,0.00,CLR,,0.00,WeatherDisplay:10.37,2013-09-07 04:25:00,
2013-09-06 23:30:00,69.3,66.6,29.86,South,178,0.0,0.0,91,0.00,CLR,,0.00,WeatherDisplay:10.37,2013-09-07 04:30:00,
2013-09-06 23:35:00,69.3,66.6,29.86,South,187,0.0,0.0,91,0.00,CLR,,0.00,WeatherDisplay:10.37,2013-09-07 04:35:00,
2013-09-06 23:40:00,69.1,66.4,29.86,South,188,0.0,0.0,91,0.00,CLR,,0.00,WeatherDisplay:10.37,2013-09-07 04:40:00,
2013-09-06 23:45:00,69.1,66.4,29.86,South,188,0.0,0.0,91,0.00,CLR,,0.00,WeatherDisplay:10.37,2013-09-07 04:45:00,
2013-09-06 23:50:00,69.0,66.6,29.86,South,188,0.0,0.0,92,0.00,CLR,,0.00,WeatherDisplay:10.37,2013-09-07 04:50:00,
2013-09-06 23:55:00,68.9,66.5,29.86,South,188,0.0,0.0,92,0.00,CLR,,0.00,WeatherDisplay:10.37,2013-09-07 04:55:00,